Yakima, WA
on Saturday, November 10, 2012

Saturday
Previous Day Next Day
Daily Summary
 ActualAverageRecord
Temperature
Mean Temperature °F 40°F  
Max Temperature 41°F 51°F 73°F (1989)
Min Temperature 29°F 28°F 13°F (1986)
Degree Days
Heating Degree Days 30 26  
Month to date heating degree days 192 239  
Since 1 July heating degree days 729 943  
Cooling Degree Days 0 0  
Month to date cooling degree days 0 0  
Year to date cooling degree days 667 472  
Moisture
Dew Point 31°F   
Average Humidity 83    
Maximum Humidity 89    
Minimum Humidity 76    
Precipitation
Precipitation 0.05 in 0.03 in 1.01 in (1983)
Month to date precipitation 0.14 0.30  
Year to date precipitation 6.67 5.97  
Snow
Snow 0.30 in 0.00 in 1.00 in (1995)
Month to date snowfall 0.5 0.3  
Year to date snowfall 22.0 9.0  
Since 1 July snowfall 0.5 0.4  
Snow Depth 0.00 in   
Wind
Wind Speed 3 mph   
Max Wind Speed 22 mph   
Max Gust Speed 13 mph   
Visibility 6 miles   
Events Fog , Snow   

Key: T is trace of precipitation, MM is missing value
Source: NWS Daily Summary
Time(PST)TemperatureDew PointHumidity Pressure Visibility Wind DirectionWind SpeedGust SpeedPrecipitationEvents Conditions
12:53 AM 33.1°F 30.0°F 89% 29.94 in 8.0 miles West 5.8 mph - N/A   Overcast
1:53 AM 34.0°F 30.0°F 85% 29.96 in 10.0 miles West 6.9 mph - N/A   Overcast
2:53 AM 35.1°F 30.9°F 85% 29.96 in 10.0 miles WNW 3.5 mph - N/A   Overcast
3:53 AM 34.0°F 30.9°F 89% 29.98 in 6.0 miles Calm Calm - N/A   Overcast
4:53 AM 35.1°F 30.9°F 85% 30.00 in 8.0 miles Calm Calm - N/A   Overcast
5:53 AM 35.1°F 30.9°F 85% 30.01 in 6.0 miles Calm Calm - 0.00 in   Overcast
6:13 AM 33.8°F 30.2°F 87% 29.99 in 2.5 miles SE 3.5 mph - 0.00 in Snow Light Snow
6:34 AM 33.8°F 30.2°F 87% 29.99 in 3.0 miles Calm Calm - 0.00 in Snow Light Snow
6:53 AM 34.0°F 30.9°F 89% 30.03 in 4.0 miles Calm Calm - 0.00 in   Overcast
7:20 AM 33.8°F 30.2°F 87% 30.01 in 2.5 miles Calm Calm - 0.00 in   Overcast
7:33 AM 33.8°F 30.2°F 87% 30.01 in 4.0 miles Calm Calm - 0.00 in   Overcast
7:53 AM 35.1°F 30.9°F 85% 30.05 in 4.0 miles Calm Calm - 0.00 in   Overcast
8:29 AM 33.8°F 32.0°F 93% 30.03 in 1.5 miles Calm Calm - 0.00 in Snow Light Snow
8:42 AM 33.8°F 32.0°F 93% 30.04 in 1.0 miles Calm Calm - N/A Snow Light Snow
8:53 AM 34.0°F 30.9°F 89% 30.07 in 1.0 miles Calm Calm - 0.01 in Snow Light Snow
9:00 AM 33.8°F 30.2°F 87% 30.04 in 0.5 miles Calm Calm - 0.00 in Fog , Snow Snow
9:21 AM 33.8°F 30.2°F 87% 30.05 in 1.0 miles Calm Calm - 0.01 in Snow Light Snow
9:31 AM 33.8°F 30.2°F 87% 30.05 in 0.5 miles Calm Calm - 0.01 in Fog , Snow Snow
9:46 AM 33.8°F 30.2°F 87% 30.05 in 0.5 miles East 4.6 mph - 0.03 in Fog , Snow Snow
9:53 AM 33.1°F 30.9°F 92% 30.09 in 0.5 miles East 4.6 mph - 0.03 in Fog , Snow Light Snow
10:05 AM 33.8°F 30.2°F 87% 30.06 in 1.2 miles Calm Calm - 0.01 in Snow Light Snow
10:14 AM 33.8°F 32.0°F 93% 30.06 in 3.0 miles Calm Calm - 0.01 in Snow Light Snow
10:53 AM 36.0°F 32.0°F 86% 30.09 in 10.0 miles ENE 3.5 mph - 0.01 in   Overcast
11:53 AM 37.0°F 32.0°F 82% 30.10 in 10.0 miles Calm Calm - N/A   Mostly Cloudy
12:53 PM 39.9°F 33.1°F 77% 30.10 in 10.0 miles Variable 4.6 mph - N/A   Mostly Cloudy
1:08 PM 39.2°F 33.8°F 81% 30.08 in 10.0 miles ENE 5.8 mph - N/A   Overcast
1:53 PM 39.0°F 32.0°F 76% 30.12 in 10.0 miles East 3.5 mph - N/A   Mostly Cloudy
2:27 PM 39.2°F 32.0°F 75% 30.10 in 10.0 miles East 6.9 mph - N/A   Mostly Cloudy
2:53 PM 39.0°F 32.0°F 76% 30.13 in 10.0 miles ESE 5.8 mph - N/A   Scattered Clouds
3:53 PM 39.0°F 32.0°F 76% 30.15 in 10.0 miles ESE 4.6 mph - N/A   Mostly Cloudy
4:30 PM 37.4°F 30.2°F 75% 30.13 in 10.0 miles SSE 5.8 mph - N/A   Mostly Cloudy
4:53 PM 35.1°F 30.0°F 82% 30.16 in 10.0 miles SSE 4.6 mph - N/A   Mostly Cloudy
5:53 PM 35.1°F 30.9°F 85% 30.19 in 10.0 miles East 3.5 mph - N/A   Mostly Cloudy
6:38 PM 35.6°F 30.2°F 81% 30.18 in 10.0 miles Calm Calm - 0.00 in   Overcast
6:53 PM 36.0°F 30.9°F 82% 30.21 in 10.0 miles SE 4.6 mph - 0.00 in   Overcast
7:03 PM 35.6°F 30.2°F 81% 30.18 in 10.0 miles East 5.8 mph - N/A   Overcast
7:53 PM 35.6°F 30.2°F 81% 30.18 in 9.0 miles East 5.8 mph - N/A   Overcast
8:53 PM 34.0°F 30.0°F 85% 30.22 in 9.0 miles SE 3.5 mph - N/A   Mostly Cloudy
9:16 PM 33.8°F 28.4°F 81% 30.20 in 9.0 miles Calm Calm - N/A   Overcast
9:53 PM 33.1°F 28.9°F 85% 30.24 in 8.0 miles Calm Calm - N/A   Overcast
10:53 PM 32.0°F 28.0°F 85% 30.25 in 8.0 miles East 4.6 mph - N/A   Scattered Clouds
11:53 PM 30.0°F 26.1°F 85% 30.26 in 7.0 miles Calm Calm - N/A   Clear
Moon Phase
Nov. 10 Nov. 13 Nov. 20 Nov. 28 Dec. 06
Sunrise:06:57 AM (PST) Moon Rise:02:57 AM (PST)11/10
Sunset:04:33 PM (PST) Moon Set:02:33 PM (PST)11/10

Copyright © 2014 The Weather Underground, Inc.